Location: Benque
(43.2594°N, 0.9178°E)
Time: 18:41:31
(UTC+00:00)

Cosmos 1340 Rocket - Pass Details

Date: 24 January 2020
Orbit: 530 x 558 km, 81.2° (Epoch: 26 February)

Event Time Altitude Azimuth Distance (km) Brightness Sun altitude
Rises 17:46:10 0° 344° (NNW) 2,700 6.3 -9.1°
Reaches altitude 10° 17:48:22 10° 340° (NNW) 1,807 5.5 -9.5°
Maximum altitude 17:52:13 50° 264° (W) 694 3.8 -10.2°
Drops below altitude 10° 17:56:04 10° 189° (S) 1,809 5.8 -10.9°
Sets 17:58:16 0° 184° (S) 2,701 6.6 -11.3°
